672  
ASUS45 KSLC 270010  
RWRUT  
 
UTAH REGIONAL WEATHER ROUNDUP  
NATIONAL WEATHER SERVICE SALT LAKE CITY UT  
600 PM MDT THU APR 26 2018  
 
UTZ001>011-023>025-270100-  
 
NORTHERN UTAH  
 
CITY SKY/WX TMP DP RH WIND PRES REMARKS
 
BRIGHAM CITY SUNNY 74 19 12 NW7 30.09F  
HILL AFB SUNNY 72 29 20 NW13 30.10F  
LOGAN SUNNY 72 33 24 N5 30.09F  
OGDEN SUNNY 74 28 18 N10 30.08F  
SALT LAKE CITY SUNNY 74 33 22 N9 30.07F  
TOOELE VALLEY SUNNY 70 32 24 N9 30.09F  
WENDOVER SUNNY 74 19 12 VRB5 30.08F  
HEBER CITY N/A 73 19 13 SW3 30.09F  
WEST JORDAN SUNNY 71 37 29 NW8 30.09F  
 

 
 
UTZ011>015-024>027-270100-  
 
CENTRAL/NORTHEAST UTAH  
 
CITY SKY/WX TMP DP RH WIND PRES REMARKS
 
PROVO AIRPORT SUNNY 72 34 24 SW8 30.08F  
MOAB/CANYONLAN SUNNY 76 17 11 MISG 30.05F  
DELTA SUNNY 73 16 11 N5 30.07F  
PRICE SUNNY 72 13 10 S8 30.12F  
ROOSEVELT SUNNY 70 21 16 SE8 30.18S  
VERNAL SUNNY 69 20 15 SE7 30.16F  
 

 
 
UTZ013>016-019>022-027-270100-  
 
SOUTHERN UTAH  
 
CITY SKY/WX TMP DP RH WIND PRES REMARKS
 
BRYCE CANYON MOSUNNY 70 16 12 SE14 30.18F  
CEDAR CITY SUNNY 77 17 10 N10 30.06F  
MILFORD SUNNY 77 19 11 NE10G16 30.06F  
ST GEORGE CLEAR 92 25 9 VRB6 29.86F  
HANKSVILLE SUNNY 79 14 8 E6G16 30.07F  
BLANDING N/A 74 11 9 N7 30.16S  
 

 
 
REGIONAL REPORTS COLORADO/ARIZONA  
 
CITY SKY/WX TMP DP RH WIND PRES REMARKS
 
CRAIG, CO SUNNY 62 23 22 SW3 30.22F  
GRAND JUNCTION SUNNY 73 22 14 VRB6 30.08F  
RIFLE, CO SUNNY 69 17 13 NW7 30.14F  
MONTROSE, CO SUNNY 69 13 11 N7 30.15F  
CORTEZ, CO SUNNY 76 -1 5 N17G24 30.07S  
COLORADO CITY N/A 84 23 10 N5 30.03F  
PAGE, AZ SUNNY 82 5 5 MISG 29.99F  
GRAND CANYON SUNNY 76 14 9 E5 30.12F  
KINGMAN, AZ SUNNY 90 23 9 SW20G26 29.91S  
FLAGSTAFF, AZ PTSUNNY 71 22 15 N5 30.14S  
 

 
 
REGIONAL REPORTS NEVADA/IDAHO/WYOMING  
 
CITY SKY/WX TMP DP RH WIND PRES REMARKS
 
LAS VEGAS, NV MOSUNNY 94 21 7 VRB5 29.81F  
ELY, NY SUNNY 75 16 10 E5 30.08F  
ELKO, NV SUNNY 77 25 14 VRB3 30.04F  
POCATELLO, ID SUNNY 71 22 15 NW8 30.12F  
BURLEY, ID SUNNY 72 21 14 N12G22 30.07F  
FORT BRIDGER, N/A 64 11 12 CALM 30.26F  
EVANSTON, WY SUNNY 66 21 18 VRB3 30.22F  
ROCK SPRINGS, SUNNY 62 14 15 E6 30.23F  
KEMMERER, WY SUNNY 61 10 13 CALM 30.25F  
 

 
 
 
CLICK HERE TO GO TO PREVIOUS BULLETINS.

The Nexlab UT Page Main Text Page